ONEWEB-0132 (47278 NORAD) Tracking and Keplerian Element Data
This shows tracking and keplerian element data for the satellite.
Feedback or suggestion? Click here.
Element | Value |
Catalog | 47278 |
Name | ONEWEB-0132 |
Epoch Orbit | 1072 |
Epoch Day | 60.16668981 |
Epoch Year | 2021 |
RAAN | 16.1903 |
Inclination | 87.5437 |
Eccentricity | 0.0011007 |
Argument of Perigee | 40.3774 |
Mean Anonmoly | 149.4062 |
Mean Motion | 13.9420121 |
Decay Rate | -0.0097094 |
L1 | 1 47278U 20100W 21060.16668981 -.00970940 00000-0 -77435+0 0 9991 |
L2 | 2 47278 87.5437 16.1903 0011007 40.3774 149.4062 13.94201210 10727 |
Live tracking and technical data element details for ONEWEB-0132 (NORAD 47278). ONEWEB-0132 can be tracked NOW for your location showing map with azimuth and elevation plus other details from your city location.
Track the satellite on the map from your city or location and see movement details for azimuth, elevation, latitude, longitude, range, height, and movement on the map or in text.
IsCatalogInMostPopularTable: catalog: 47278, numindb: 25
Update: records affected: 1
GetName: 47278 ONEWEB-0132
Hit Count: updated at: Mon, 01 Mar 2021 22:20:08 GMT